EW4271 Weather Reports


time (UTC)temp
C
wind
direction
speed
KPH
gust
KPH
rain 1hr
cm
rain 24hr
cm
rain mn
cm
humidity
%
barometer
mb
20260506231135 12 38 4.8 14.5 0.00 0.03 0.00 35 1017.2
20260506230629 12 340 4.8 14.5 0.00 0.03 0.00 35 1017.3
20260506230126 12 33 6.4 16.1 0.00 0.03 0.00 34 1017.1
20260506225639 12 9 3.2 16.1 0.00 0.03 0.00 35 1016.8
20260506225133 12 26 6.4 16.1 0.00 0.03 0.00 34 1016.7
20260506224625 12 23 6.4 19.3 0.00 0.03 0.00 34 1016.8
20260506224139 13 355 6.4 19.3 0.00 0.03 0.00 34 1016.8
20260506223653 13 281 6.4 17.7 0.00 0.03 0.00 35 1016.5
20260506223126 13 221 8.0 17.7 0.00 0.03 0.00 37 1016.6
20260506222639 13 23 8.0 17.7 0.00 0.03 0.00 38 1016.5
20260506222133 13 45 8.0 22.5 0.00 0.03 0.00 39 1016.1
20260506221630 12 33 8.0 22.5 0.00 0.03 0.00 39 1016.2
20260506221123 12 355 4.8 12.9 0.00 0.03 0.00 43 1016.1
20260506220636 12 36 6.4 17.7 0.00 0.03 0.00 43 1016.2
20260506220129 12 23 3.2 12.9 0.00 0.03 0.00 44 1016.3
20260506215623 11 244 4.8 22.5 0.00 0.03 0.00 46 1016.2
20260506215157 11 40 6.4 22.5 0.00 0.03 0.00 47 1016.4
20260506214629 11 308 4.8 17.7 0.00 0.03 0.00 46 1016.4
20260506214142 11 292 9.7 19.3 0.00 0.03 0.00 47 1016.7
20260506213635 11 35 8.0 20.9 0.00 0.03 0.00 48 1016.8
20260506213133 11 9 8.0 20.9 0.00 0.03 0.00 48 1017.0
20260506212647 11 277 6.4 19.3 0.00 0.03 0.00 51 1017.0
20260506212138 12 37 8.0 17.7 0.00 0.03 0.00 50 1017.1
20260506211632 14 302 6.4 17.7 0.00 0.03 0.00 38 1016.7
20260506211125 15 266 8.0 17.7 0.00 0.03 0.00 32 1015.9
20260506210639 15 293 4.8 17.7 0.00 0.03 0.00 31 1015.7
20260506210133 15 38 6.4 17.7 0.00 0.03 0.00 31 1015.5
20260506205626 15 219 4.8 9.7 0.00 0.03 0.00 32 1015.4
20260506205123 15 159 4.8 11.3 0.00 0.03 0.00 32 1015.6
20260506204637 15 169 3.2 17.7 0.00 0.03 0.00 33 1015.5
20260506204131 15 18 4.8 17.7 0.00 0.03 0.00 32 1015.7
20260506203625 15 51 4.8 12.9 0.00 0.03 0.00 32 1015.6
20260506203159 15 138 3.2 17.7 0.00 0.03 0.00 35 1015.9
20260506202652 15 118 6.4 16.1 0.00 0.03 0.00 34 1015.9
20260506202123 15 321 4.8 16.1 0.00 0.03 0.00 33 1015.9
20260506201637 15 117 4.8 14.5 0.00 0.03 0.00 33 1015.7
20260506201131 15 335 8.0 17.7 0.00 0.03 0.00 33 1015.8
20260506200628 15 289 8.0 12.9 0.00 0.03 0.00 33 1015.8
20260506200202 15 236 4.8 14.5 0.00 0.03 0.00 38 1015.8
20260506195633 15 233 3.2 14.5 0.00 0.03 0.00 39 1015.8
20260506195127 14 153 3.2 12.9 0.00 0.03 0.00 40 1016.0
20260506194641 13 72 4.8 14.5 0.00 0.03 0.00 42 1015.9
20260506194135 13 255 6.4 14.5 0.00 0.03 0.00 43 1016.0
20260506193627 12 241 4.8 14.5 0.00 0.03 0.00 45 1016.1
20260506193141 12 148 6.4 14.5 0.00 0.03 0.00 46 1016.1
20260506192655 11 32 4.8 11.3 0.00 0.03 0.00 50 1016.3
20260506192132 10 113 4.8 14.5 0.00 0.03 0.00 55 1016.5
20260506191625 10 155 4.8 14.5 0.00 0.03 0.00 53 1016.8
20260506191139 11 76 4.8 19.3 0.00 0.03 0.00 51 1017.0
20260506190633 11 234 6.4 19.3 0.00 0.03 0.00 46 1017.0
20260506190126 12 5 8.0 17.7 0.00 0.03 0.00 43 1016.7
20260506185640 12 257 3.2 16.1 0.00 0.03 0.00 40 1016.5
20260506185154 12 59 4.8 16.1 0.00 0.03 0.00 40 1016.3
20260506184626 12 192 3.2 11.3 0.00 0.03 0.00 42 1016.3
20260506184124 12 76 4.8 17.7 0.00 0.03 0.00 42 1016.6
20260506183636 12 156 6.4 17.7 0.00 0.03 0.00 41 1016.6
20260506183130 12 213 4.8 9.7 0.00 0.03 0.00 42 1016.7
20260506182623 12 272 3.2 9.7 0.00 0.03 0.00 42 1016.7
20260506182158 12 331 3.2 14.5 0.00 0.03 0.00 43 1016.7
20260506181628 12 221 4.8 14.5 0.00 0.03 0.00 41 1016.8
20260506181122 12 276 6.4 16.1 0.00 0.03 0.00 41 1016.8
20260506180636 12 30 6.4 16.1 0.00 0.03 0.00 43 1016.7
20260506180130 12 320 4.8 11.3 0.00 0.03 0.00 39 1016.8
20260506175622 12 5 3.2 12.9 0.00 0.03 0.00 40 1016.8
20260506175156 12 28 3.2 16.1 0.00 0.03 0.00 40 1016.7
20260506174632 12 40 6.4 16.1 0.00 0.03 0.00 39 1016.6
20260506174126 12 39 8.0 17.7 0.00 0.03 0.00 38 1016.7
20260506173639 12 33 8.0 17.7 0.00 0.03 0.00 39 1016.8
20260506173134 12 34 4.8 11.3 0.00 0.03 0.00 39 1016.6
20260506172647 12 54 4.8 11.3 0.00 0.03 0.00 40 1016.6
20260506172139 12 87 4.8 12.9 0.00 0.03 0.00 41 1016.6
20260506171633 12 61 6.4 12.9 0.00 0.03 0.00 39 1016.7
20260506171125 12 26 4.8 12.9 0.00 0.03 0.00 41 1016.7
20260506170644 12 355 4.8 16.1 0.00 0.03 0.00 40 1016.8
20260506170137 12 37 6.4 16.1 0.00 0.03 0.00 41 1016.6
20260506165631 12 31 4.8 9.7 0.00 0.03 0.00 41 1016.4
20260506165125 12 19 6.4 14.5 0.00 0.03 0.00 42 1016.3
20260506164640 11 27 6.4 14.5 0.00 0.03 0.00 43 1016.3
20260506164153 11 67 6.4 14.5 0.00 0.03 0.00 43 1016.3
20260506163646 11 252 3.2 14.5 0.00 0.03 0.00 45 1016.2
20260506163139 11 31 3.2 14.5 0.00 0.03 0.00 46 1016.2
20260506162633 11 290 3.2 12.9 0.00 0.03 0.00 46 1016.1
20260506162129 11 161 4.8 12.9 0.00 0.03 0.00 46 1016.1
20260506161623 11 298 3.2 11.3 0.00 0.03 0.00 50 1016.2
20260506161137 10 149 4.8 14.5 0.00 0.03 0.00 51 1016.1
20260506160631 10 30 4.8 14.5 0.00 0.03 0.00 50 1016.2
20260506160125 10 279 3.2 14.5 0.00 0.03 0.00 51 1016.4
20260506155637 9 5 6.4 16.1 0.00 0.03 0.00 51 1016.3
20260506155152 9 277 8.0 16.1 0.00 0.03 0.00 52 1016.5
20260506154646 8 240 6.4 14.5 0.00 0.03 0.00 53 1016.5
20260506154138 8 15 6.4 17.7 0.00 0.03 0.00 52 1016.6
20260506153636 8 255 6.4 19.3 0.00 0.03 0.00 52 1016.6
20260506153129 8 29 8.0 19.3 0.00 0.03 0.00 53 1016.6
20260506152623 8 350 4.8 19.3 0.00 0.03 0.00 53 1016.7
20260506152137 8 14 6.4 19.3 0.00 0.03 0.00 53 1016.8
20260506151630 8 132 1.6 9.7 0.00 0.03 0.00 56 1016.8
20260506151123 8 213 3.2 8.0 0.00 0.03 0.00 57 1016.6
20260506150637 8 163 3.2 6.4 0.00 0.03 0.00 58 1016.6
20260506150132 7 248 1.6 4.8 0.00 0.03 0.00 58 1016.7
20260506145630 7 75 3.2 14.5 0.00 0.03 0.00 61 1016.7
20260506145124 7 30 9.7 16.1 0.00 0.03 0.00 57 1016.7
20260506144638 7 36 9.7 16.1 0.00 0.03 0.00 56 1016.8
20260506144132 7 34 1.6 9.7 0.00 0.03 0.00 57 1016.8
20260506143625 7 56 4.8 8.0 0.00 0.03 0.00 60 1016.8
20260506143139 7 109 3.2 9.7 0.00 0.03 0.00 60 1016.7
20260506142633 6 61 6.4 9.7 0.00 0.03 0.00 60 1016.7
20260506142127 6 43 0.0 8.0 0.00 0.03 0.00 60 1016.6
20260506141625 6 61 6.4 8.0 0.00 0.03 0.00 59 1016.6
20260506141158 6 9 6.4 8.0 0.00 0.03 0.00 58 1016.6
20260506140651 7 355 1.6 8.0 0.00 0.03 0.00 58 1016.4
20260506140123 7 55 4.8 9.7 0.00 0.03 0.00 57 1016.3
20260506135635 6 146 4.8 11.3 0.00 0.03 0.00 59 1016.2
20260506135130 6 133 3.2 11.3 0.00 0.03 0.00 60 1016.2
20260506134623 6 43 3.2 11.3 0.00 0.03 0.00 59 1016.2
20260506134136 6 83 4.8 16.1 0.00 0.03 0.00 61 1016.3
20260506133630 6 207 3.2 16.1 0.00 0.03 0.00 61 1016.4
20260506133123 6 183 3.2 9.7 0.00 0.03 0.00 62 1016.4
20260506132641 5 108 4.8 12.9 0.00 0.03 0.00 61 1016.4
20260506132134 5 276 6.4 14.5 0.00 0.03 0.00 60 1016.1
20260506131627 5 132 1.6 14.5 0.00 0.03 0.00 61 1016.1
20260506131142 5 76 4.8 14.5 0.00 0.03 0.00 61 1016.1
20260506130635 5 90 6.4 16.1 0.00 0.03 0.00 61 1016.1
20260506130128 5 216 4.8 17.7 0.00 0.03 0.00 63 1016.0
20260506125701 5 174 4.8 17.7 0.00 0.03 0.00 63 1016.0
20260506125134 5 39 4.8 16.1 0.00 0.03 0.00 64 1016.0
20260506124649 5 149 8.0 12.9 0.00 0.03 0.00 67 1016.0
20260506124125 5 156 0.0 8.0 0.00 0.03 0.00 69 1015.9
20260506123639 5 173 3.2 8.0 0.00 0.03 0.00 69 1015.9
20260506123132 5 83 0.0 0.0 0.00 0.03 0.00 66 1015.9
20260506122626 5 81 0.0 3.2 0.00 0.03 0.00 66 1015.8
20260506122200 5 81 1.6 3.2 0.00 0.03 0.00 66 1015.7
20260506121633 5 81 1.6 4.8 0.00 0.03 0.00 66 1015.7
20260506121146 5 319 1.6 4.8 0.00 0.03 0.00 65 1015.7
20260506120638 5 254 3.2 4.8 0.00 0.03 0.00 64 1015.4
20260506120153 5 136 1.6 8.0 0.00 0.03 0.00 64 1015.4
20260506115626 5 46 1.6 8.0 0.00 0.03 0.00 64 1015.4
20260506115124 5 136 3.2 17.7 0.00 0.03 0.00 64 1015.4
20260506114638 5 57 3.2 17.7 0.00 0.03 0.00 63 1015.3
20260506114132 5 26 4.8 17.7 0.00 0.03 0.00 62 1015.2
20260506113625 5 80 3.2 19.3 0.00 0.03 0.00 62 1015.0
20260506113138 5 267 6.4 19.3 0.00 0.03 0.00 62 1014.9
20260506112632 5 75 6.4 17.7 0.00 0.03 0.00 63 1014.8
20260506112125 5 298 4.8 22.5 0.00 0.03 0.00 65 1015.0
20260506111623 5 241 8.0 22.5 0.00 0.03 0.00 65 1015.0
20260506111138 5 142 1.6 12.9 0.00 0.03 0.00 66 1015.0
20260506110630 5 345 3.2 12.9 0.00 0.03 0.00 66 1015.0
20260506110125 5 349 1.6 11.3 0.00 0.03 0.00 65 1015.0
20260506105637 5 335 3.2 9.7 0.00 0.03 0.00 65 1015.1
20260506105131 4 186 3.2 11.3 0.00 0.03 0.00 65 1015.2
20260506104624 4 232 0.0 8.0 0.00 0.03 0.00 66 1015.4
20260506104137 4 269 1.6 8.0 0.00 0.03 0.00 66 1015.4
20260506103631 4 44 3.2 8.0 0.00 0.03 0.00 66 1015.6
20260506103129 4 237 1.6 4.8 0.00 0.03 0.00 65 1015.6
20260506102623 5 221 0.0 4.8 0.00 0.03 0.00 65 1015.6
20260506102137 5 215 3.2 4.8 0.00 0.03 0.00 64 1015.5
20260506101651 5 57 0.0 3.2 0.00 0.03 0.00 63 1015.4
20260506101124 5 57 0.0 4.8 0.00 0.03 0.00 63 1015.4
20260506100637 5 59 0.0 12.9 0.00 0.03 0.00 63 1015.3
20260506100130 5 45 6.4 12.9 0.00 0.03 0.00 62 1015.4
20260506095643 5 57 6.4 9.7 0.00 0.03 0.00 62 1015.5
20260506095137 5 135 1.6 12.9 0.00 0.03 0.00 62 1015.4
20260506094635 5 102 4.8 12.9 0.00 0.03 0.00 62 1015.4
20260506094127 5 63 3.2 6.4 0.00 0.03 0.00 63 1015.3
20260506093641 5 144 4.8 6.4 0.00 0.03 0.00 63 1015.1
20260506093155 5 41 1.6 9.7 0.00 0.03 0.00 63 1015.1
20260506092628 5 56 4.8 9.7 0.00 0.03 0.00 63 1015.1
20260506092122 5 96 3.2 9.7 0.00 0.03 0.00 64 1015.0
20260506091637 5 120 3.2 8.0 0.00 0.03 0.00 63 1015.0
20260506091130 5 147 1.6 8.0 0.00 0.03 0.00 62 1015.0
20260506090628 5 72 1.6 8.0 0.00 0.03 0.00 62 1015.0
20260506090123 5 209 1.6 8.0 0.00 0.03 0.00 62 1015.0
20260506085636 5 92 1.6 6.4 0.00 0.03 0.00 62 1015.1
20260506085150 5 177 3.2 12.9 0.00 0.03 0.00 61 1015.2
20260506084643 5 219 4.8 12.9 0.00 0.03 0.00 62 1015.1
20260506084135 5 21 4.8 12.9 0.00 0.03 0.00 62 1015.1
20260506083648 5 282 4.8 11.3 0.00 0.03 0.00 64 1015.2
20260506083140 5 170 1.6 9.7 0.00 0.03 0.00 63 1015.4
20260506082655 5 271 4.8 9.7 0.00 0.03 0.00 63 1015.4
20260506082127 5 153 0.0 8.0 0.00 0.03 0.00 63 1015.4
20260506081641 5 162 4.8 11.3 0.00 0.03 0.00 62 1015.4
20260506081135 6 128 3.2 11.3 0.00 0.03 0.00 62 1015.4
20260506080653 5 250 3.2 6.4 0.00 0.03 0.00 62 1015.3
20260506080125 5 5 3.2 11.3 0.00 0.03 0.00 62 1015.2
20260506073129 6 222 4.8 14.5 0.00 0.03 0.00 62 1015.3
20260506072647 6 103 0.0 8.0 0.00 0.03 0.00 63 1015.4
20260506072140 6 157 3.2 8.0 0.00 0.03 0.00 64 1015.4
20260506071633 6 184 1.6 6.4 0.00 0.03 0.00 63 1015.5
20260506071148 6 188 0.0 6.4 0.00 0.03 0.00 64 1015.6
20260506070641 6 286 1.6 8.0 0.00 0.03 0.00 64 1015.8
20260506070136 6 350 1.6 12.9 0.00 0.03 0.00 64 1015.7
20260506062129 6 103 0.0 4.8 0.00 0.03 0.00 62 1015.5
20260506061623 6 279 1.6 9.7 0.00 0.03 0.00 62 1015.4
20260506061137 6 317 3.2 9.7 0.00 0.03 0.00 63 1015.4
20260506060630 6 311 4.8 11.3 0.00 0.03 0.00 62 1015.4
20260506060128 6 307 1.6 17.7 0.00 0.03 0.00 63 1015.4
20260506051146 7 300 4.8 20.9 0.00 0.03 0.03 64 1014.8
20260506050658 7 34 3.2 16.1 0.00 0.03 0.03 66 1015.1
20260506050131 7 49 3.2 11.3 0.00 0.03 0.03 66 1015.6
20260506044631 7 298 3.2 9.7 0.00 0.03 0.03 67 1015.2
20260506044123 7 221 3.2 9.7 0.00 0.03 0.03 68 1015.5
20260506043640 7 340 3.2 9.7 0.00 0.03 0.03 68 1015.5
20260506043153 7 211 0.0 6.4 0.00 0.03 0.03 68 1015.7
20260506042636 7 316 1.6 6.4 0.00 0.03 0.03 69 1015.5
20260506042127 7 197 1.6 8.0 0.00 0.03 0.03 69 1015.4
20260506041638 7 255 3.2 9.7 0.00 0.03 0.03 69 1015.2
20260506041130 7 273 1.6 6.4 0.00 0.03 0.03 70 1015.2
20260506040624 6 243 1.6 8.0 0.00 0.03 0.03 70 1014.9
20260506040138 6 221 3.2 8.0 0.00 0.03 0.03 72 1014.7
20260506035651 6 90 3.2 9.7 0.00 0.03 0.03 74 1014.7
20260506035125 6 337 3.2 17.7 0.00 0.03 0.03 75 1014.4
20260506034623 6 5 4.8 17.7 0.00 0.03 0.03 76 1014.3
20260506034136 6 26 3.2 8.0 0.03 0.03 0.03 78 1014.5
20260506033630 6 51 1.6 8.0 0.03 0.03 0.03 82 1014.5
20260506033144 6 154 0.0 0.0 0.03 0.03 0.03 80 1014.9
20260506032636 6 154 0.0 0.0 0.03 0.03 0.03 79 1015.2
20260506032130 6 275 0.0 3.2 0.03 0.03 0.03 79 1015.5
20260506031645 6 177 0.0 6.4 0.03 0.03 0.03 79 1015.4
20260506031136 6 254 1.6 8.0 0.03 0.03 0.03 78 1015.5
20260506030630 6 46 1.6 9.7 0.03 0.03 0.03 78 1015.2
20260506030127 6 252 1.6 6.4 0.03 0.03 0.03 78 1015.0
20260506025622 6 321 3.2 19.3 0.03 0.03 0.03 77 1014.7
20260506025156 6 273 3.2 24.1 0.03 0.03 0.03 76 1014.6
20260506024648 6 261 4.8 24.1 0.03 0.03 0.03 73 1014.2
20260506024141 7 88 4.8 19.3 0.00 0.00 0.00 70 1014.0
20260506023635 6 105 1.6 9.7 0.00 0.00 0.00 71 1014.2
20260506023129 6 288 3.2 9.7 0.00 0.00 0.00 71 1014.3
20260506022644 7 200 1.6 22.5 0.00 0.00 0.00 70 1014.5
20260506022156 7 312 6.4 22.5 0.00 0.00 0.00 69 1014.5
20260506021629 7 25 6.4 17.7 0.00 0.00 0.00 70 1014.0
20260506021144 7 355 6.4 14.5 0.00 0.00 0.00 72 1013.5
20260506020636 6 284 1.6 12.9 0.00 0.00 0.00 72 1013.1
20260506020129 6 23 3.2 12.9 0.00 0.00 0.00 73 1013.1
20260506015642 6 320 3.2 6.4 0.00 0.00 0.00 78 1013.1
20260506015155 6 120 3.2 4.8 0.00 0.00 0.00 77 1013.3
20260506014629 6 205 1.6 4.8 0.00 0.00 0.00 77 1013.7
20260506014141 6 182 1.6 12.9 0.00 0.00 0.00 76 1013.8
20260506013656 6 281 0.0 12.9 0.00 0.00 0.00 76 1014.1
20260506013129 7 230 4.8 11.3 0.00 0.00 0.00 73 1014.2
20260506012623 7 313 3.2 16.1 0.00 0.00 0.00 69 1014.0
20260506012140 8 315 4.8 16.1 0.00 0.00 0.00 64 1014.0
20260506011654 10 284 4.8 14.5 0.00 0.00 0.00 59 1014.0
20260506011127 10 360 4.8 14.5 0.00 0.00 0.00 53 1013.4
20260506010701 10 251 3.2 11.3 0.00 0.00 0.00 55 1013.3
20260506010133 10 209 1.6 6.4 0.00 0.00 0.00 55 1013.0
20260506005627 10 46 3.2 6.4 0.00 0.00 0.00 54 1012.6
20260506005140 10 246 3.2 8.0 0.00 0.00 0.00 54 1012.8
20260506004634 10 232 4.8 12.9 0.00 0.00 0.00 53 1012.9
20260506004148 10 255 6.4 12.9 0.00 0.00 0.00 51 1012.6
20260506003626 11 315 1.6 11.3 0.00 0.00 0.00 50 1012.5
20260506003140 11 292 3.2 9.7 0.00 0.00 0.00 50 1012.4
20260506002633 11 39 4.8 9.7 0.00 0.00 0.00 49 1012.6
20260506002148 12 283 4.8 11.3 0.00 0.00 0.00 47 1012.6
20260506001640 12 313 4.8 16.1 0.00 0.00 0.00 43 1012.7
20260506001135 12 11 4.8 16.1 0.00 0.00 0.00 42 1012.5
20260506000628 13 70 4.8 9.7 0.00 0.00 0.00 42 1012.4
20260506000141 13 34 4.8 8.0 0.00 0.00 0.00 42 1012.2
20260505235631 13 318 3.2 17.7 0.00 0.00 0.00 42 1012.3
20260505235125 13 300 6.4 17.7 0.00 0.00 0.00 42 1012.2
20260505234639 13 220 3.2 14.5 0.00 0.00 0.00 43 1011.9
20260505234153 13 264 4.8 17.7 0.00 0.00 0.00 44 1011.8
20260505233625 12 355 6.4 17.7 0.00 0.00 0.00 45 1011.7
20260505233140 12 96 1.6 8.0 0.00 0.00 0.00 48 1011.8
20260505232634 12 305 3.2 8.0 0.00 0.00 0.00 47 1011.7
20260505232128 12 316 1.6 9.7 0.00 0.00 0.00 47 1011.7
20260505231640 12 86 3.2 9.7 0.00 0.00 0.00 46 1012.0